Tracking 19908 objects as of 19-Oct-2019
HD Live streaming from Space Station
objects crossing your sky now

IUE

Track IUE now!
IUE is classified as:


NORAD ID: 10637
Int'l Code: 1978-012A
Perigee: 29,000.5 km
Apogee: 42,693.8 km
Inclination: 41.9 °
Period: 1,438.8 minutes
Semi major axis: 42218 km
RCS: 5.9851 m2 (large)
Launch date: January 26, 1978
Source: United States (US)
Launch site: AIR FORCE EASTERN TEST RANGE (AFETR)

The International Ultraviolet Explorer (IUE, formerly SAS-D) satellite was a spaceborne ultraviolet astronomical observatory for use as an international facility. IUE was shut down at 18:42 UT, 30 September 1996.
aabbcc
Your satellite tracking list
Your tracking list is empty




NASA's NSSDC Master Catalog

Two Line Element Set (TLE):
1 10637U 78012A   19290.33860072 -.00000171 +00000-0 +00000-0 0  9995
2 10637 041.8765 324.1041 1621731 225.5263 113.2511 01.00081702104706
Source of the keplerian elements: AFSPC